GW0409 Weather Reports


Display with metric or nautical units.
time (UTC)temp
F
wind
direction
speed
MPH
gust
MPH
rain 1hr
in
rain 24hr
in
rain mn
in
humidity
%
barometer
mb
20260506073018 56 338 2.0 4.0 0.00 0.00 0.00 50 1009.5
20260506072018 56 298 0.0 2.0 0.00 0.00 0.00 48 1009.4
20260506071019 57 300 0.0 1.0 0.00 0.00 0.00 47 1009.3
20260506062021 62 290 1.0 3.0 0.00 0.00 0.00 38 1009.0
20260506061039 63 71 0.0 1.0 0.00 0.00 0.00 35 1008.9
20260506051018 63 109 0.0 3.0 0.00 0.00 0.00 36 1009.0
20260506045021 64 118 1.0 5.0 0.00 0.00 0.00 34 1009.0
20260506044018 65 133 0.0 4.0 0.00 0.00 0.00 31 1008.9
20260506043018 65 105 2.0 3.0 0.00 0.00 0.00 31 1008.9
20260506042018 65 113 2.0 3.0 0.00 0.00 0.00 30 1008.8
20260506041018 66 109 0.0 2.0 0.00 0.00 0.00 31 1008.8
20260506040019 66 103 1.0 2.0 0.00 0.00 0.00 30 1008.8
20260506035020 67 0.0 0.0 0.00 0.00 0.00 29 1008.8
20260506034020 68 0.0 0.0 0.00 0.00 0.00 29 1008.7
20260506033019 69 0.0 0.0 0.00 0.00 0.00 29 1008.8
20260506032020 70 128 0.0 2.0 0.00 0.00 0.00 28 1008.9
20260506031041 72 109 0.0 2.0 0.00 0.00 0.00 27 1008.8
20260506030021 74 136 0.0 2.0 0.00 0.00 0.00 24 1008.7
20260506025020 74 131 1.0 3.0 0.00 0.00 0.00 25 1008.8
20260506024020 74 121 2.0 4.0 0.00 0.00 0.00 25 1008.8
20260506023017 74 100 2.0 5.0 0.00 0.00 0.00 24 1008.8
20260506022017 74 111 2.0 5.0 0.00 0.00 0.00 24 1008.9
20260506021042 76 81 1.0 3.0 0.00 0.00 0.00 23 1008.8
20260506020022 76 72 1.0 3.0 0.00 0.00 0.00 23 1008.9
20260506015017 76 64 2.0 4.0 0.00 0.00 0.00 23 1008.9
20260506014018 76 188 1.0 2.0 0.00 0.00 0.00 23 1009.0
20260506013018 76 157 0.0 3.0 0.00 0.00 0.00 24 1009.1
20260506012018 76 45 2.0 7.0 0.00 0.00 0.00 23 1009.2
20260506011018 76 256 1.0 7.0 0.00 0.00 0.00 23 1009.3
20260506010018 76 92 2.0 5.0 0.00 0.00 0.00 23 1009.4
20260506005020 76 167 2.0 4.0 0.00 0.00 0.00 24 1009.6
20260506004019 75 151 0.0 2.0 0.00 0.00 0.00 25 1009.6
20260506003019 75 72 2.0 5.0 0.00 0.00 0.00 24 1009.8
20260506002019 75 236 2.0 6.0 0.00 0.00 0.00 24 1009.9
20260506001020 75 238 1.0 5.0 0.00 0.00 0.00 24 1010.0
20260506000020 74 228 2.0 7.0 0.00 0.00 0.00 25 1010.1
20260505235020 74 204 2.0 6.0 0.00 0.00 0.00 27 1010.2
20260505234017 74 208 1.0 5.0 0.00 0.00 0.00 25 1010.5
20260505233039 74 119 2.0 6.0 0.00 0.00 0.00 25 1010.5
20260505232017 73 75 2.0 7.0 0.00 0.00 0.00 26 1010.7
20260505231041 72 305 2.0 8.0 0.00 0.00 0.00 26 1010.9
20260505230018 73 162 3.0 9.0 0.00 0.00 0.00 25 1011.1
20260505225018 74 250 1.0 5.0 0.00 0.00 0.00 25 1011.1
20260505224018 73 175 2.0 5.0 0.00 0.00 0.00 24 1011.3
20260505223018 73 207 3.0 8.0 0.00 0.00 0.00 25 1011.3
20260505222018 72 178 1.0 4.0 0.00 0.00 0.00 26 1011.5
20260505221019 71 212 3.0 6.0 0.00 0.00 0.00 25 1011.7
20260505220019 72 234 3.0 8.0 0.00 0.00 0.00 25 1011.8
20260505215020 72 186 3.0 8.0 0.00 0.00 0.00 26 1011.8
20260505214041 72 223 3.0 9.0 0.00 0.00 0.00 25 1012.0
20260505213020 71 188 1.0 4.0 0.00 0.00 0.00 27 1012.2
20260505212016 70 205 2.0 5.0 0.00 0.00 0.00 26 1012.3
20260505211021 71 258 5.0 9.0 0.00 0.00 0.00 25 1012.4
20260505210020 72 242 3.0 7.0 0.00 0.00 0.00 26 1012.5
20260505205021 71 108 2.0 7.0 0.00 0.00 0.00 29 1012.6
20260505204017 70 224 1.0 6.0 0.00 0.00 0.00 28 1012.7
20260505203017 71 198 3.0 5.0 0.00 0.00 0.00 28 1012.9
20260505202017 70 202 2.0 4.0 0.00 0.00 0.00 28 1013.0
20260505201021 68 67 3.0 6.0 0.00 0.00 0.00 31 1013.1
20260505200018 68 118 2.0 5.0 0.00 0.00 0.00 30 1013.3
20260505195019 68 255 4.0 9.0 0.00 0.00 0.00 30 1013.4
20260505194018 68 45 2.0 5.0 0.00 0.00 0.00 30 1013.5
20260505193040 67 138 2.0 5.0 0.00 0.00 0.00 33 1013.5
20260505192019 67 53 4.0 7.0 0.00 0.00 0.00 33 1013.6
20260505191019 66 80 1.0 8.0 0.00 0.00 0.00 32 1013.8
20260505190019 66 7 2.0 6.0 0.00 0.00 0.00 34 1013.9
20260505185019 65 33 3.0 7.0 0.00 0.00 0.00 35 1014.0
20260505184019 65 58 2.0 8.0 0.00 0.00 0.00 35 1014.2
20260505183019 65 109 1.0 4.0 0.00 0.00 0.00 35 1014.2
20260505182036 64 66 1.0 6.0 0.00 0.00 0.00 37 1014.3
20260505181019 62 99 2.0 6.0 0.00 0.00 0.00 38 1014.4
20260505180020 62 64 2.0 6.0 0.00 0.00 0.00 38 1014.5
20260505175020 61 97 2.0 6.0 0.00 0.00 0.00 41 1014.6
20260505174058 60 50 1.0 4.0 0.00 0.00 0.00 41 1014.7
20260505173017 59 5 1.0 5.0 0.00 0.00 0.00 42 1014.8
20260505172018 59 30 2.0 6.0 0.00 0.00 0.00 42 1014.8
20260505171021 59 16 2.0 4.0 0.00 0.00 0.00 42 1015.0
20260505170021 57 26 2.0 7.0 0.00 0.00 0.00 44 1015.0
20260505165020 57 32 3.0 8.0 0.00 0.00 0.00 44 1015.2
20260505164020 56 21 3.0 8.0 0.00 0.00 0.00 44 1015.2
20260505163018 55 13 3.0 6.0 0.00 0.00 0.00 46 1015.3
20260505162019 55 26 3.0 8.0 0.00 0.00 0.00 46 1015.3
20260505161019 55 12 3.0 7.0 0.00 0.00 0.00 46 1015.3
20260505153019 52 10 2.0 6.0 0.00 0.00 0.00 50 1015.2
20260505152017 51 4 3.0 7.0 0.00 0.00 0.00 52 1015.2
20260505151020 50 31 2.0 6.0 0.00 0.00 0.00 53 1015.2
20260505125040 46 11 3.0 8.0 0.00 0.00 0.00 58 1015.1
20260505124020 46 360 2.0 5.0 0.00 0.00 0.00 59 1015.1
20260505123017 46 359 2.0 4.0 0.00 0.00 0.00 58 1015.2
20260505122020 46 354 2.0 4.0 0.00 0.00 0.00 58 1015.1
20260505121020 46 6 2.0 5.0 0.00 0.00 0.00 57 1015.1
20260505120020 47 12 3.0 6.0 0.00 0.00 0.00 56 1015.1
20260505115017 47 16 3.0 8.0 0.00 0.00 0.00 56 1015.1
20260505114018 47 23 3.0 8.0 0.00 0.00 0.00 56 1015.1
20260505113039 47 13 3.0 6.0 0.00 0.00 0.00 56 1015.1
20260505112022 47 15 3.0 7.0 0.00 0.00 0.00 56 1015.0
20260505111021 47 21 3.0 7.0 0.00 0.00 0.00 55 1015.0
20260505102019 48 20 4.0 8.0 0.00 0.00 0.00 54 1014.8
20260505101019 48 17 3.0 8.0 0.00 0.00 0.00 54 1014.7
20260505100039 49 21 4.0 9.0 0.00 0.00 0.00 54 1014.7
20260505095021 49 18 3.0 7.0 0.00 0.00 0.00 54 1014.6
20260505094019 49 23 3.0 7.0 0.00 0.00 0.00 53 1014.6
20260505093018 49 23 3.0 6.0 0.00 0.00 0.00 53 1014.6
20260505092021 50 34 3.0 8.0 0.00 0.00 0.00 52 1014.5
20260505091022 50 32 4.0 9.0 0.00 0.00 0.00 52 1014.5
20260505090104 51 20 4.0 8.0 0.00 0.00 0.00 51 1014.4
20260505085018 51 25 3.0 7.0 0.00 0.00 0.00 51 1014.4
20260505084018 51 22 4.0 7.0 0.00 0.00 0.00 50 1014.5
20260505083018 52 18 4.0 7.0 0.00 0.00 0.00 49 1014.5
20260505082021 52 359 3.0 7.0 0.00 0.00 0.00 48 1014.4
20260505081018 53 9 3.0 6.0 0.00 0.00 0.00 48 1014.4